Regional Weather Roundup
Issued by NWS Cleveland, OH

Home | Current Version | Previous Version | Graphics & Text | Print | Product List | Glossary On
Versions: 1 2 3 4 5 6 7 8 9 10 11 12 13 14 15 16 17 18 19 20 21 22 23 24 25 26 27 28 29 30 31 32 33 34 35 36 37 38 39 40 41 42 43 44 45 46 47 48 49 50
694
ASUS41 KCLE 220210
RWRCLE
OHIO REGIONAL WEATHER ROUNDUP
NATIONAL WEATHER SERVICE WILMINGTON, OH
1000 PM EDT SAT OCT 21 2017

NOTE: "FAIR" INDICATES FEW OR NO CLOUDS BELOW 12,000 FEET WITH NO
SIGNIFICANT WEATHER AND/OR OBSTRUCTIONS TO VISIBILITY.

OHZ001>008-015>018-024>027-034-035-043-044-220300-
   NORTHWEST OHIO

CITY           SKY/WX    TMP DP  RH WIND       PRES   REMARKS
DEFIANCE       FAIR      65  45  48 S9        30.17S
FINDLAY        FAIR      60  44  55 S10       30.18S
TOLEDO EXPRESS FAIR      64  45  49 S6        30.17S
TOLEDO EXEC    FAIR      60  44  55 S8        30.18S
LIMA           FAIR      62  47  57 S6        30.20R
$$

OHZ009>014-019>023-028>033-038-089-220300-
   NORTHEAST OHIO

CITY           SKY/WX    TMP DP  RH WIND       PRES   REMARKS
CLE-HOPKINS    MOCLDY    63  51  65 S6        30.24S
CLE-LAKEFRONT  FAIR      66  48  52 S14       30.21S
CUY CO. ARPT   MOCLDY    66  50  55 S12       30.23S
LORAIN-ELYRIA  FAIR      61  47  59 S8        30.23S
ASHTABULA      FAIR      62  51  67 S7        30.26S
AKRON-CANTON   CLOUDY    60  49  66 S7        30.26S
WOOSTER        FAIR      60  51  72 S6        30.25S
MANSFIELD      FAIR      60  52  74 SE8       30.24S
YOUNGSTOWN     CLOUDY    62  51  67 S7        30.27S
$$

OHZ042-051>053-060>062-070>072-077>081-220300-
  SOUTHWEST OHIO

CITY           SKY/WX    TMP DP  RH WIND       PRES   REMARKS
CINC-COVINGTON MOCLDY    63  48  58 S6        30.21S
CINC-LUNKEN    FAIR      54  52  93 CALM      30.22F
HAMILTON       FAIR      54  51  90 SE3       30.21F
DAYTON         MOCLDY    60  51  72 SE9       30.21F
WRIGHT-PAT AFB MOCLDY    62  50  65 SE5       30.21F
DAYTON GENERAL FAIR      64  49  57 SE8       30.21S
WILMINGTON     FAIR      61  53  75 SE6       30.23S
$$

OHZ036-037-039>041-045>050-054>059-063>069-073>076-082>088-220300-
  CENTRAL AND SOUTHEAST OHIO

CITY           SKY/WX    TMP DP  RH WIND       PRES   REMARKS
COLUMBUS       MOCLDY    65  52  62 SE5       30.23S
OSU AIRPORT    FAIR      65  52  62 S6        30.23S
BOLTON FIELD   FAIR      61  51  70 S5        30.24S
RICKENBACK AFB FAIR      60  51  73 SE3       30.23S
NEWARK         FAIR      54  51  90 CALM      30.24F
MARION         FAIR      63  50  62 S8        30.22F
LANCASTER      FAIR      50  48  93 CALM      30.24S
ZANESVILLE     FAIR      58  52  80 CALM      30.25F
NEW PHILLY     FAIR      54  51  90 SE3       30.27S
$$




USA.gov is the U.S. government's official web portal to all federal, state and local government web resources and services.